Hourly Data Report for September 20, 2017

All times are specified in Local Standard Time (LST). Add 1 hour to adjust for Daylight Saving Time where and when it is observed.

KAMLOOPS A
BRITISH COLUMBIA

50°42'09.000" N
120°26'55.000" W
345.30 m
1163781
71887
YKA

Download Data

Hourly Data (September 2017)
Hourly Data Report for September 20, 2017
Temp Definition
°C
Dew Point Temp Definition
°C
Rel Hum Definition
%
Wind Dir Definition
10's deg

Wind Spd Definition
km/h
Visibility Definition
km
Stn Press Definition
kPa
Hmdx Definition


Wind Chill Definition


Weather Definition


TIME
00:00 Legend Double Dagger 8.6 1.2 60 10 13 64.4 96.18     LegendNANA
01:00 Legend Double Dagger 8.1 1.1 61 11 10 64.4 96.21     Mostly Cloudy
02:00 Legend Double Dagger 8.5 1.5 61 13 5 64.4 96.22     LegendNANA
03:00 Legend Double Dagger 7.6 0.9 62 36 3 64.4 96.22     LegendNANA
04:00 Legend Double Dagger 7.0 1.2 66 4 4 64.4 96.22     Mostly Cloudy
05:00 Legend Double Dagger 5.2 1.0 74 9 9 64.4 96.21     LegendNANA
06:00 Legend Double Dagger 4.4 1.4 81 11 9 64.4 96.21     LegendNANA
07:00 Legend Double Dagger 7.4 2.0 69 10 10 64.4 96.25     Mostly Cloudy
08:00 Legend Double Dagger 10.0 2.5 59 28 5 64.4 96.25     LegendNANA
09:00 Legend Double Dagger 11.5 3.1 56 31 18 64.4 96.25     LegendNANA
10:00 Legend Double Dagger 13.4 1.1 43 29 16 64.4 96.22     Mostly Cloudy
11:00 Legend Double Dagger 13.7 0.8 41 28 13 64.4 96.24     LegendNANA
12:00 Legend Double Dagger 13.6 0.1 39 32 8 64.4 96.25     LegendNANA
13:00 Legend Double Dagger 14.2 0.9 40 30 17 64.4 96.24     Cloudy
14:00 Legend Double Dagger 13.9 1.5 43 32 26 64.4 96.28     LegendNANA
15:00 Legend Double Dagger 12.6 2.1 49 30 21 64.4 96.39     LegendNANA
16:00 Legend Double Dagger 11.7 2.3 52 29 30 64.4 96.44     Cloudy
17:00 Legend Double Dagger 11.2 3.3 58 28 30 64.4 96.49     LegendNANA
18:00 Legend Double Dagger 10.8 3.3 60 27 23 64.4 96.54     LegendNANA
19:00 Legend Double Dagger 10.9 3.8 61 27 18 64.4 96.58     Cloudy
20:00 Legend Double Dagger 11.2 4.1 61 27 20 64.4 96.61     LegendNANA
21:00 Legend Double Dagger 11.4 4.2 61 28 14 64.4 96.66     LegendNANA
22:00 Legend Double Dagger 11.8 4.3 60 26 18 64.4 96.68     Cloudy
23:00 Legend Double Dagger 11.5 4.9 64 29 18 64.4 96.73     LegendNANA

Notes on Data Quality.

Legend

  • E = Estimated
  • M = Missing
  • NA = Not Available
  • ‡ = Partner data that is not subject to review by the National Climate Archives
Date modified: